• In Slovakia
  • List of Countries
  • For 7 days
  • Water Temperature
  • Satellite Maps
  • Weather Map
  • Weather Widgets
  • user-avatar
    Login

    Hourly Weather Nashavar

    Today, 22 September, Saturday

    Time Temperature Precipitation Wind Pressure Humidity
    00:00 +31°C° 0 mm 1 mps 729 mmHg 35%
    01:00 +31°C° 0 mm 1 mps 729 mmHg 36%
    02:00 +30°C° 0 mm 1 mps 729 mmHg 37%
    03:00 +30°C° 0.1 mm 1 mps 729 mmHg 38%
    04:00 +29°C° 0.1 mm 1 mps 729 mmHg 39%
    05:00 +29°C° 0.1 mm 1 mps 730 mmHg 40%
    06:00 +30°C° 0 mm 1 mps 730 mmHg 38%
    07:00 +30°C° 0 mm 1 mps 730 mmHg 37%
    08:00 +31°C° 0 mm 1 mps 730 mmHg 35%
    09:00 +32°C° 0 mm 1 mps 730 mmHg 33%
    10:00 +33°C° 0 mm 1 mps 730 mmHg 30%
    11:00 +35°C° 0 mm 1 mps 730 mmHg 28%
    12:00 +37°C° 0 mm 2 mps 729 mmHg 26%
    13:00 +37°C° 0 mm 2 mps 729 mmHg 25%
    14:00 +38°C° 0 mm 2 mps 728 mmHg 23%
    15:00 +38°C° 0 mm 2 mps 728 mmHg 23%
    16:00 +38°C° 0 mm 2 mps 728 mmHg 23%
    17:00 +38°C° 0 mm 3 mps 728 mmHg 23%
    18:00 +37°C° 0 mm 2 mps 728 mmHg 26%
    19:00 +36°C° 0 mm 2 mps 728 mmHg 29%
    20:00 +34°C° 0 mm 2 mps 729 mmHg 32%
    21:00 +34°C° 0.1 mm 2 mps 729 mmHg 37%
    22:00 +33°C° 0.1 mm 3 mps 729 mmHg 42%
    23:00 +31°C° 0.1 mm 3 mps 730 mmHg 48%

    Tomorrow, 23 September, Sunday

    Time Temperature Precipitation Wind Pressure Humidity
    00:00 +30°C° 0.3 mm 3 mps 730 mmHg 53%
    01:00 +29°C° 0.3 mm 2 mps 729 mmHg 57%
    02:00 +28°C° 0.3 mm 2 mps 729 mmHg 62%
    03:00 +28°C° 0.1 mm 2 mps 729 mmHg 64%
    04:00 +27°C° 0.1 mm 1 mps 729 mmHg 67%
    05:00 +27°C° 0.1 mm 1 mps 729 mmHg 69%
    06:00 +27°C° 0 mm 1 mps 729 mmHg 67%
    07:00 +28°C° 0 mm 1 mps 729 mmHg 65%
    08:00 +28°C° 0 mm 1 mps 730 mmHg 63%
    09:00 +29°C° 0 mm 1 mps 729 mmHg 58%
    10:00 +31°C° 0 mm 1 mps 729 mmHg 52%
    11:00 +32°C° 0 mm 1 mps 729 mmHg 47%
    12:00 +33°C° 0 mm 1 mps 728 mmHg 43%
    13:00 +35°C° 0 mm 2 mps 728 mmHg 39%
    14:00 +36°C° 0 mm 2 mps 727 mmHg 36%
    15:00 +36°C° 0 mm 2 mps 727 mmHg 35%
    16:00 +36°C° 0 mm 3 mps 727 mmHg 35%
    17:00 +36°C° 0 mm 3 mps 727 mmHg 35%
    18:00 +35°C° 0 mm 3 mps 727 mmHg 37%
    19:00 +34°C° 0 mm 3 mps 728 mmHg 40%
    20:00 +32°C° 0 mm 2 mps 728 mmHg 43%
    21:00 +31°C° 0 mm 2 mps 728 mmHg 46%
    22:00 +31°C° 0 mm 3 mps 729 mmHg 49%
    23:00 +30°C° 0 mm 3 mps 729 mmHg 51%

    Day after tomorrow, 24 September, Monday

    Time Temperature Precipitation Wind Pressure Humidity
    00:00 +29°C° 0.1 mm 2 mps 729 mmHg 55%
    01:00 +28°C° 0.1 mm 2 mps 729 mmHg 58%
    02:00 +28°C° 0.1 mm 2 mps 728 mmHg 61%
    03:00 +27°C° 0 mm 1 mps 728 mmHg 63%
    04:00 +27°C° 0 mm 1 mps 728 mmHg 65%
    05:00 +27°C° 0 mm 1 mps 728 mmHg 67%
    06:00 +27°C° 0 mm 1 mps 728 mmHg 64%
    07:00 +28°C° 0 mm 1 mps 728 mmHg 62%
    08:00 +28°C° 0 mm 1 mps 728 mmHg 60%
    09:00 +29°C° 0 mm 1 mps 728 mmHg 55%
    10:00 +31°C° 0 mm 1 mps 728 mmHg 50%
    11:00 +32°C° 0 mm 1 mps 728 mmHg 45%
    12:00 +33°C° 0 mm 1 mps 728 mmHg 42%
    13:00 +34°C° 0 mm 1 mps 727 mmHg 38%
    14:00 +36°C° 0 mm 2 mps 727 mmHg 35%
    15:00 +36°C° 0 mm 2 mps 726 mmHg 35%
    16:00 +36°C° 0 mm 2 mps 726 mmHg 34%
    17:00 +36°C° 0 mm 2 mps 726 mmHg 34%
    18:00 +35°C° 0 mm 2 mps 726 mmHg 37%
    19:00 +34°C° 0 mm 2 mps 727 mmHg 40%
    20:00 +32°C° 0 mm 2 mps 727 mmHg 43%
    21:00 +31°C° 0.2 mm 2 mps 727 mmHg 45%
    22:00 +31°C° 0.2 mm 1 mps 727 mmHg 47%
    23:00 +30°C° 0.2 mm 1 mps 727 mmHg 49%

    25 September, Tuesday

    Time Temperature Precipitation Wind Pressure Humidity
    00:00 +30°C° 0.4 mm 1 mps 727 mmHg 51%
    01:00 +29°C° 0.4 mm 1 mps 727 mmHg 53%
    02:00 +28°C° 0.4 mm 1 mps 727 mmHg 55%
    03:00 +28°C° 0.2 mm 1 mps 727 mmHg 56%
    04:00 +28°C° 0.2 mm 1 mps 727 mmHg 58%
    05:00 +27°C° 0.2 mm 1 mps 727 mmHg 59%
    06:00 +28°C° 0 mm 1 mps 727 mmHg 56%
    07:00 +29°C° 0 mm 1 mps 727 mmHg 54%
    08:00 +29°C° 0 mm 1 mps 728 mmHg 51%
    09:00 +31°C° 0 mm 1 mps 728 mmHg 46%
    10:00 +32°C° 0 mm 1 mps 728 mmHg 42%
    11:00 +33°C° 0 mm 1 mps 728 mmHg 37%
    12:00 +34°C° 0 mm 1 mps 728 mmHg 34%
    13:00 +36°C° 0 mm 2 mps 727 mmHg 31%
    14:00 +37°C° 0 mm 2 mps 727 mmHg 28%
    15:00 +37°C° 0 mm 2 mps 727 mmHg 28%
    16:00 +37°C° 0 mm 2 mps 726 mmHg 28%
    17:00 +37°C° 0 mm 3 mps 726 mmHg 29%
    18:00 +36°C° 0 mm 2 mps 727 mmHg 32%
    19:00 +35°C° 0 mm 2 mps 727 mmHg 35%
    20:00 +34°C° 0 mm 2 mps 727 mmHg 38%
    21:00 +32°C° 0.1 mm 2 mps 728 mmHg 40%
    22:00 +31°C° 0.1 mm 1 mps 728 mmHg 42%
    23:00 +31°C° 0.1 mm 1 mps 728 mmHg 43%

    26 September, Wednesday

    Time Temperature Precipitation Wind Pressure Humidity
    00:00 +30°C° 0.1 mm 1 mps 727 mmHg 45%
    01:00 +30°C° 0.1 mm 1 mps 727 mmHg 46%
    02:00 +29°C° 0.1 mm 1 mps 727 mmHg 47%
    03:00 +29°C° 0 mm 1 mps 727 mmHg 47%
    04:00 +28°C° 0 mm 1 mps 727 mmHg 48%
    05:00 +28°C° 0 mm 1 mps 727 mmHg 49%
    06:00 +29°C° 0 mm 1 mps 727 mmHg 46%
    07:00 +29°C° 0 mm 1 mps 727 mmHg 43%
    08:00 +30°C° 0 mm 1 mps 727 mmHg 41%
    09:00 +32°C° 0 mm 1 mps 727 mmHg 37%
    10:00 +33°C° 0 mm 1 mps 727 mmHg 33%
    11:00 +34°C° 0 mm 1 mps 727 mmHg 30%
    12:00 +35°C° 0 mm 1 mps 727 mmHg 28%
    13:00 +36°C° 0 mm 1 mps 726 mmHg 26%
    14:00 +38°C° 0 mm 2 mps 726 mmHg 24%
    15:00 +38°C° 0 mm 2 mps 726 mmHg 25%
    16:00 +38°C° 0 mm 2 mps 726 mmHg 25%
    17:00 +38°C° 0 mm 2 mps 726 mmHg 25%
    18:00 +36°C° 0.1 mm 2 mps 726 mmHg 28%
    19:00 +35°C° 0.1 mm 2 mps 727 mmHg 31%
    20:00 +33°C° 0.1 mm 1 mps 727 mmHg 34%
    21:00 +32°C° 0.2 mm 1 mps 727 mmHg 35%
    22:00 +32°C° 0.2 mm 1 mps 728 mmHg 36%
    23:00 +31°C° 0.2 mm 1 mps 728 mmHg 37%

    27 September, Thursday

    Time Temperature Precipitation Wind Pressure Humidity
    00:00 +31°C° 0.2 mm 1 mps 728 mmHg 38%
    01:00 +30°C° 0.2 mm 1 mps 728 mmHg 39%
    02:00 +29°C° 0.2 mm 1 mps 728 mmHg 39%
    03:00 +29°C° 0.1 mm 1 mps 728 mmHg 39%
    04:00 +29°C° 0.1 mm 1 mps 728 mmHg 40%
    05:00 +28°C° 0.1 mm 2 mps 728 mmHg 40%
    06:00 +29°C° 0.1 mm 2 mps 728 mmHg 38%
    07:00 +30°C° 0.1 mm 2 mps 728 mmHg 36%
    08:00 +30°C° 0.1 mm 2 mps 729 mmHg 34%
    09:00 +32°C° 0 mm 2 mps 729 mmHg 31%
    10:00 +34°C° 0 mm 2 mps 729 mmHg 28%
    11:00 +36°C° 0 mm 2 mps 729 mmHg 25%
    12:00 +36°C° 0 mm 2 mps 728 mmHg 24%
    13:00 +36°C° 0 mm 1 mps 728 mmHg 22%
    14:00 +37°C° 0 mm 1 mps 728 mmHg 21%
    15:00 +38°C° 0 mm 2 mps 728 mmHg 21%
    16:00 +38°C° 0 mm 2 mps 728 mmHg 21%
    17:00 +38°C° 0 mm 2 mps 728 mmHg 21%
    18:00 +37°C° 0 mm 2 mps 728 mmHg 24%
    19:00 +35°C° 0 mm 2 mps 728 mmHg 27%
    20:00 +33°C° 0 mm 1 mps 729 mmHg 30%
    21:00 +32°C° 0 mm 1 mps 729 mmHg 31%
    22:00 +32°C° 0 mm 1 mps 729 mmHg 31%
    23:00 +31°C° 0 mm 1 mps 729 mmHg 31%
    Show more